This demonstration page uses our WeatherBlox Daily Observations layout. Learn more.

Left ArrowRight Arrow

40.97296, -117.73568

Hourly Observations for August 23, 2020

Temp ( °F °C ) Dew Point ( °F °C ) Humidity (%) Winds ( mph kmh ) Pressure ( in mb ) Visibility ( mi km ) Precip ( " mm )
12:56 am 00:56 Clear 59 15 19 -7.2 21 21 SSE 9 15 29.87 1012 8 13 0.00 0.00
1:56 am 01:56 Clear 57 13.9 21 -6.1 25 25 S 5 7 29.88 1012 8 13 0.00 0.00
2:56 am 02:56 Mostly Clear 54 12.2 22 -5.6 29 29 SSE 8 13 29.88 1012 8 13 0.00 0.00
3:56 am 03:56 Clear 52 11.1 20 -6.7 28 28 SSE 3 6 29.90 1012 8 13 0.00 0.00
4:56 am 04:56 Clear 54 12.2 20 -6.7 26 26 SSE 3 6 29.90 1012 7 11 0.00 0.00
5:56 am 05:56 Hazy 53 11.7 19 -7.2 26 26 ESE 3 6 29.92 1013 6 10 0.00 0.00
6:56 am 06:56 Hazy 52 11.1 20 -6.7 28 28 SSW 3 6 29.94 1014 5 8 0.00 0.00
7:56 am 07:56 Hazy 61 16.1 22 -5.6 22 22 E 3 6 29.96 1014 5 8 0.00 0.00
8:56 am 08:56 Hazy 71 21.7 22 -5.6 16 16 Calm 29.95 1014 4 6 0.00 0.00
9:56 am 09:56 Hazy 81 27.2 21 -6.1 11 11 N 6 9 29.93 1014 3 5 0.00 0.00
10:56 am 10:56 Hazy 88 31.1 20 -6.7 8 8 NNE 3 6 29.92 1013 3 5 0.00 0.00
11:56 am 11:56 Hazy 89 31.7 18 -7.8 7 7 Calm 29.91 1013 3 5 0.00 0.00
12:56 pm 12:56 Hazy 91 32.8 19 -7.2 7 7 SE 7 11 29.89 1012 3 5 0.00 0.00
1:56 pm 13:56 Hazy 98 36.7 28 -2.2 8 8 W 10 17 29.86 1011 6 10 0.00 0.00
2:56 pm 14:56 Hazy 99 37.2 30 -1.1 9 9 W 14 22 29.84 1011 6 10 0.00 0.00
3:56 pm 15:56 Mostly Sunny 95 35 29 -1.7 9 9 WSW 9 15 29.83 1010 7 11 0.00 0.00
4:56 pm 16:56 Partly Cloudy 98 36.7 32 0 10 10 SW 16 26 29.80 1009 9 14 0.00 0.00
5:56 pm 17:56 Mostly Cloudy 97 36.1 31 -0.6 10 10 WSW 14 22 29.80 1009 9 14 0.00 0.00
6:56 pm 18:56 Mostly Cloudy with Haze 92 33.3 31 -0.6 11 11 WNW 8 13 29.81 1010 5 8 0.00 0.00
7:56 pm 19:56 Partly Cloudy 80 26.7 33 0.6 18 18 WSW 6 9 29.83 1010 7 11 0.00 0.00
8:56 pm 20:56 Mostly Clear 79 26.1 33 0.6 19 19 Calm 29.84 1010 7 11 0.00 0.00
9:56 pm 21:56 Hazy 78 25.6 32 0 19 19 Calm 29.83 1010 5 8 0.00 0.00
10:56 pm 22:56 Hazy 76 24.4 37 2.8 24 24 Calm 29.83 1010 5 8 0.00 0.00
11:56 pm 23:56 Hazy 72 22.2 33 0.6 24 24 SW 7 11 29.83 1010 5 8 0.00 0.00

Powered by AerisWeather